QPF
0.01 0.01 0.01 0.00 0.00 0.00 0.09 0.10 0.07 0.04 0.00 0.00 0.00 0.00 0.00 0.00 0.01 0.00 0.00 0.00 0.00 0.00 0.00 0.00 0.00 0.00 0.00 0.00 0.00 0.00 0.00 0.00 0.00 0.03 0.01 0.00 0.00 0.01 0.02 0.01 0.01 0.00 0.00
0.01 0.00 0.00 0.00 0.00 0.00 0.09 0.07 0.02 0.01 0.00 0.00 0.00 0.00 0.00 0.00 0.00 0.00 0.00 0.00 0.00 0.00 0.00 0.00 0.00 0.00 0.00 0.00 0.00 0.00 0.00 0.00 0.01 0.02 0.01 0.02 0.02 0.01 0.01 0.00 0.00 0.00 0.00
0.00 0.01 0.00 0.00 0.00 0.00 0.02 0.02 0.08 0.05 0.01 0.00 0.00 0.00 0.00 0.00 0.00 0.00 0.00 0.00 0.00 0.00 0.00 0.00 0.00 0.00 0.00 0.00 0.00 0.00 0.00 0.01 0.00 0.00 0.00 0.01 0.01 0.01 0.01 0.01 0.01 0.01 0.00
0.00 0.00 0.00 0.00 0.00 0.01 0.04 0.02 0.04 0.03 0.09 0.05 0.01 0.00 0.00 0.00 0.00 0.00 0.00 0.00 0.00 0.00 0.00 0.00 0.00 0.00 0.00 0.00 0.00 0.01 0.02 0.01 0.00 0.00 0.00 0.00 0.00 0.00 0.00 0.01 0.00 0.00 0.00
0.00 0.00 0.00 0.02 0.00 0.01 0.04 0.03 0.01 0.02 0.07 0.16 0.10 0.03 0.01 0.00 0.00 0.00 0.00 0.00 0.00 0.00 0.00 0.00 0.00 0.00 0.00 0.00 0.00 0.01 0.02 0.01 0.00 0.01 0.01 0.00 0.00 0.00 0.00 0.00 0.00 0.00 0.00
0.00 0.00 0.02 0.05 0.01 0.01 0.02 0.03 0.00 0.01 0.10 0.06 0.04 0.07 0.01 0.01 0.00 0.00 0.00 0.00 0.00 0.00 0.00 0.00 0.00 0.00 0.00 0.00 0.00 0.00 0.01 0.01 0.01 0.01 0.01 0.00 0.00 0.00 0.00 0.00 0.00 0.00 0.00
0.00 0.00 0.05 0.02 0.00 0.02 0.05 0.01 0.02 0.13 0.08 0.01 0.02 0.10 0.02 0.00 0.00 0.00 0.00 0.00 0.00 0.00 0.00 0.00 0.00 0.00 0.00 0.00 0.00 0.00 0.00 0.00 0.00 0.00 0.00 0.00 0.00 0.00 0.00 0.00 0.00 0.00 0.00
0.01 0.01 0.09 0.05 0.01 0.03 0.04 0.02 0.04 0.12 0.07 0.00 0.09 0.11 0.24 0.11 0.03 0.04 0.01 0.01 0.01 0.00 0.00 0.00 0.00 0.00 0.00 0.00 0.00 0.00 0.00 0.00 0.00 0.00 0.00 0.00 0.00 0.00 0.00 0.00 0.00 0.00 0.00
0.00 0.01 0.03 0.05 0.01 0.02 0.03 0.02 0.02 0.09 0.11 0.02 0.04 0.07 0.14 0.15 0.16 0.06 0.01 0.00 0.01 0.00 0.00 0.00 0.00 0.00 0.00 0.00 0.00 0.00 0.00 0.00 0.00 0.00 0.00 0.00 0.00 0.00 0.00 0.00 0.00 0.00 0.00
0.00 0.00 0.01 0.01 0.01 0.02 0.09 0.03 0.01 0.04 0.04 0.05 0.02 0.00 0.01 0.03 0.06 0.08 0.06 0.01 0.00 0.00 0.00 0.00 0.00 0.00 0.00 0.00 0.00 0.00 0.00 0.00 0.00 0.00 0.00 0.00 0.00 0.00 0.00 0.00 0.00 0.00 0.00
0.01 0.00 0.00 0.02 0.00 0.01 0.02 0.01 0.02 0.01 0.02 0.03 0.04 0.03 0.01 0.02 0.02 0.15 0.31 0.14 0.07 0.00 0.01 0.00 0.03 0.00 0.00 0.00 0.00 0.00 0.00 0.00 0.00 0.00 0.00 0.00 0.00 0.01 0.00 0.00 0.01 0.00 0.00
0.00 0.00 0.00 0.03 0.01 0.00 0.02 0.00 0.00 0.01 0.02 0.02 0.02 0.01 0.01 0.04 0.15 0.17 0.08 0.14 0.25 0.06 0.12 0.01 0.05 0.00 0.00 0.00 0.00 0.00 0.00 0.00 0.00 0.00 0.00 0.00 0.00 0.00 0.00 0.00 0.00 0.00 0.00
0.00 0.00 0.01 0.03 0.00 0.02 0.02 0.03 0.02 0.01 0.00 0.00 0.00 0.00 0.00 0.00 0.05 0.08 0.02 0.04 0.05 0.13 0.18 0.09 0.02 0.00 0.00 0.00 0.00 0.00 0.00 0.00 0.00 0.00 0.00 0.00 0.00 0.00 0.00 0.00 0.00 0.00 0.00
0.01 0.00 0.00 0.00 0.01 0.02 0.01 0.03 0.01 0.00 0.01 0.01 0.00 0.01 0.00 0.00 0.00 0.00 0.00 0.01 0.03 0.18 0.30 0.06 0.03 0.00 0.00 0.01 0.00 0.03 0.03 0.00 0.00 0.00 0.00 0.00 0.00 0.00 0.00 0.00 0.00 0.00 0.00
0.02 0.01 0.00 0.00 0.01 0.01 0.01 0.02 0.00 0.03 0.03 0.04 0.01 0.00 0.00 0.00 0.00 0.00 0.00 0.00 0.02 0.22 0.38 0.12 0.17 0.01 0.00 0.00 0.00 0.00 0.00 0.02 0.00 0.00 0.00 0.00 0.00 0.00 0.00 0.00 0.00 0.00 0.00
0.02 0.24 0.14 0.02 0.01 0.00 0.01 0.02 0.00 0.02 0.02 0.01 0.00 0.01 0.00 0.00 0.00 0.00 0.00 0.00 0.01 0.03 0.14 0.17 0.25 0.14 0.02 0.00 0.09 0.00 0.00 0.04 0.10 0.00 0.00 0.00 0.00 0.00 0.00 0.00 0.00 0.00 0.00
0.03 0.12 0.16 0.05 0.04 0.03 0.04 0.03 0.01 0.06 0.08 0.04 0.04 0.04 0.03 0.00 0.00 0.00 0.00 0.00 0.00 0.00 0.01 0.03 0.10 0.21 0.12 0.00 0.03 0.01 0.00 0.00 0.05 0.02 0.01 0.00 0.00 0.00 0.00 0.00 0.00 0.00 0.00
0.05 0.05 0.12 0.10 0.07 0.05 0.05 0.04 0.01 0.03 0.08 0.06 0.03 0.05 0.03 0.00 0.02 0.00 0.00 0.01 0.02 0.02 0.03 0.07 0.05 0.07 0.05 0.05 0.05 0.04 0.00 0.00 0.00 0.00 0.07 0.00 0.00 0.00 0.00 0.00 0.00 0.00 0.00
0.06 0.04 0.08 0.04 0.03 0.03 0.04 0.04 0.04 0.05 0.04 0.05 0.04 0.04 0.01 0.02 0.04 0.03 0.02 0.02 0.01 0.01 0.02 0.03 0.01 0.00 0.01 0.00 0.01 0.03 0.03 0.00 0.00 0.00 0.00 0.00 0.00 0.00 0.00 0.00 0.00 0.00 0.00
0.07 0.04 0.05 0.02 0.02 0.01 0.03 0.04 0.06 0.05 0.02 0.01 0.03 0.02 0.01 0.03 0.04 0.05 0.04 0.06 0.04 0.04 0.05 0.04 0.01 0.00 0.00 0.00 0.01 0.02 0.01 0.00 0.00 0.02 0.03 0.00 0.00 0.00 0.00 0.00 0.00 0.00 0.00
0.03 0.03 0.03 0.03 0.00 0.02 0.01 0.03 0.07 0.07 0.09 0.04 0.04 0.09 0.01 0.01 0.02 0.03 0.01 0.06 0.07 0.05 0.03 0.03 0.02 0.00 0.00 0.01 0.02 0.00 0.00 0.00 0.00 0.01 0.01 0.00 0.00 0.00 0.00 0.00 0.00 0.00 0.00
0.03 0.04 0.01 0.00 0.00 0.00 0.00 0.00 0.00 0.01 0.04 0.04 0.03 0.05 0.03 0.07 0.03 0.00 0.00 0.01 0.02 0.03 0.06 0.05 0.06 0.05 0.06 0.04 0.04 0.03 0.03 0.04 0.02 0.01 0.00 0.00 0.00 0.01 0.00 0.00 0.00 0.00 0.00
0.00 0.02 0.02 0.01 0.00 0.00 0.00 0.00 0.01 0.00 0.01 0.01 0.03 0.04 0.02 0.00 0.00 0.01 0.02 0.00 0.00 0.00 0.00 0.01 0.00 0.01 0.04 0.05 0.03 0.07 0.12 0.06 0.02 0.00 0.01 0.00 0.00 0.00 0.00 0.00 0.00 0.00 0.00
0.01 0.00 0.00 0.01 0.01 0.00 0.00 0.00 0.01 0.00 0.00 0.00 0.00 0.02 0.02 0.00 0.02 0.09 0.07 0.07 0.01 0.02 0.03 0.02 0.00 0.00 0.00 0.01 0.04 0.06 0.15 0.05 0.02 0.01 0.03 0.03 0.00 0.00 0.03 0.04 0.01 0.00 0.00
0.02 0.00 0.00 0.00 0.00 0.00 0.00 0.00 0.01 0.00 0.00 0.00 0.00 0.00 0.03 0.03 0.02 0.05 0.05 0.03 0.07 0.02 0.04 0.04 0.00 0.00 0.00 0.00 0.07 0.10 0.02 0.04 0.01 0.05 0.07 0.03 0.03 0.06 0.01 0.02 0.01 0.00 0.00
0.06 0.03 0.00 0.00 0.00 0.00 0.00 0.00 0.00 0.00 0.00 0.00 0.00 0.00 0.01 0.02 0.07 0.06 0.07 0.07 0.02 0.03 0.08 0.09 0.05 0.04 0.05 0.00 0.00 0.03 0.04 0.05 0.06 0.05 0.03 0.02 0.03 0.01 0.00 0.00 0.00 0.00 0.00
MSLP
1017.43 1017.40 1016.88 1016.43 1015.58 1015.96 1017.07 1018.45 1017.35 1017.25 1016.00 1015.59 1015.77 1015.53 1015.38 1015.44 1016.22 1016.42 1017.40 1017.76 1018.15 1018.60 1018.97 1019.48 1019.84 1020.26 1020.52 1020.81 1021.27 1021.71 1022.07 1022.41 1022.90 1023.21 1023.45 1023.65 1023.83 1024.03 1024.17 1024.35 1024.43 1024.53 1024.61
1016.95 1016.55 1016.40 1015.58 1015.83 1015.66 1017.69 1017.66 1016.32 1016.07 1015.74 1015.77 1015.76 1015.59 1015.38 1015.16 1016.27 1016.39 1017.07 1017.65 1017.94 1018.40 1018.74 1019.12 1019.53 1019.88 1020.30 1020.63 1021.05 1021.49 1021.80 1022.25 1022.68 1023.06 1023.38 1023.48 1023.59 1023.81 1024.02 1024.18 1024.30 1024.35 1024.38
1016.73 1016.45 1015.97 1015.73 1016.10 1016.03 1016.51 1016.33 1016.98 1016.69 1016.46 1015.83 1015.87 1015.55 1015.48 1015.24 1015.78 1016.11 1016.63 1017.36 1017.90 1018.29 1018.56 1018.99 1019.41 1019.76 1020.01 1020.35 1020.82 1021.24 1021.63 1022.05 1022.41 1022.74 1023.01 1023.24 1023.40 1023.64 1023.80 1023.97 1024.05 1024.11 1024.13
1016.57 1016.25 1015.82 1015.62 1015.68 1016.05 1016.64 1016.22 1016.16 1016.82 1017.26 1015.73 1016.17 1015.62 1015.48 1015.18 1015.38 1015.91 1016.41 1016.89 1017.66 1018.09 1018.66 1018.95 1019.27 1019.68 1019.98 1020.23 1020.55 1020.95 1021.37 1021.74 1022.09 1022.38 1022.66 1022.89 1023.14 1023.34 1023.54 1023.70 1023.75 1023.79 1023.83
1016.19 1015.80 1015.60 1015.80 1015.44 1016.02 1016.60 1016.71 1016.50 1016.42 1016.86 1017.14 1016.92 1016.08 1015.71 1015.72 1015.62 1015.52 1016.22 1016.42 1016.96 1017.56 1018.34 1018.97 1019.37 1019.67 1019.93 1020.15 1020.39 1020.77 1021.09 1021.43 1021.78 1022.11 1022.40 1022.66 1022.83 1023.00 1023.20 1023.32 1023.40 1023.47 1023.49
1015.97 1015.86 1015.76 1016.48 1015.80 1015.66 1016.48 1016.67 1015.72 1015.74 1016.86 1016.69 1016.37 1016.46 1016.10 1015.80 1015.58 1015.65 1015.84 1015.91 1016.36 1017.00 1017.72 1018.48 1019.20 1019.58 1019.88 1020.03 1020.23 1020.47 1020.75 1021.15 1021.52 1021.89 1022.10 1022.30 1022.49 1022.71 1022.86 1022.96 1023.05 1023.17 1023.20
1015.94 1015.64 1015.97 1015.55 1015.41 1015.66 1015.66 1015.93 1016.13 1016.66 1015.89 1015.72 1016.09 1016.71 1016.52 1015.80 1015.83 1015.67 1015.53 1015.69 1015.85 1016.32 1017.15 1017.96 1018.62 1018.99 1019.33 1019.59 1019.86 1020.12 1020.35 1020.68 1021.04 1021.39 1021.74 1022.02 1022.23 1022.41 1022.54 1022.64 1022.75 1022.83 1022.87
1015.68 1015.56 1015.78 1015.76 1015.45 1015.72 1016.21 1016.32 1016.31 1016.97 1017.08 1015.94 1017.30 1017.51 1017.41 1016.10 1015.83 1016.28 1015.90 1015.96 1015.84 1015.86 1016.66 1017.32 1017.86 1018.23 1018.58 1019.04 1019.27 1019.59 1019.99 1020.31 1020.63 1020.98 1021.31 1021.61 1021.83 1022.01 1022.16 1022.31 1022.41 1022.49 1022.56
1014.99 1014.94 1015.84 1015.50 1015.42 1015.22 1015.72 1015.90 1016.32 1016.79 1016.48 1016.11 1017.01 1016.22 1016.59 1017.91 1017.22 1016.72 1016.34 1016.08 1015.76 1015.88 1015.94 1016.43 1017.07 1017.33 1017.90 1018.33 1018.68 1019.09 1019.44 1019.83 1020.15 1020.49 1020.82 1021.10 1021.34 1021.55 1021.74 1021.90 1022.02 1022.11 1022.20
1014.56 1014.72 1014.68 1014.88 1014.79 1015.39 1015.51 1016.35 1016.10 1016.26 1016.42 1016.19 1016.00 1015.34 1015.50 1016.76 1016.87 1016.60 1016.35 1016.12 1015.71 1015.71 1015.88 1016.08 1016.46 1016.94 1017.40 1017.82 1018.04 1018.49 1018.93 1019.37 1019.66 1019.94 1020.23 1020.50 1020.78 1021.02 1021.20 1021.38 1021.55 1021.67 1021.77
1014.09 1014.26 1014.42 1014.67 1014.88 1014.86 1015.14 1014.86 1015.21 1015.78 1016.17 1016.14 1015.79 1016.04 1015.67 1016.23 1016.08 1017.30 1018.08 1016.83 1016.02 1015.24 1016.41 1016.06 1016.24 1016.49 1016.84 1017.20 1017.52 1017.75 1018.17 1018.65 1019.10 1019.50 1019.80 1020.04 1020.25 1020.46 1020.67 1020.88 1021.03 1021.12 1021.23
1014.08 1013.91 1014.14 1014.46 1014.60 1014.70 1014.52 1014.31 1014.54 1015.02 1015.56 1015.35 1015.29 1015.39 1015.73 1016.13 1017.11 1017.59 1017.98 1017.99 1017.24 1016.77 1016.44 1016.99 1016.43 1016.28 1016.36 1016.54 1016.70 1016.89 1017.36 1017.91 1018.41 1018.82 1019.22 1019.55 1019.82 1020.03 1020.19 1020.32 1020.41 1020.49 1020.59
1013.95 1013.98 1014.16 1014.41 1014.62 1014.54 1014.57 1014.36 1014.36 1014.49 1014.79 1015.25 1015.38 1015.50 1015.56 1015.34 1016.43 1016.73 1016.79 1017.56 1017.03 1017.02 1017.35 1016.73 1016.28 1015.95 1016.20 1016.26 1016.26 1016.46 1016.91 1017.38 1017.89 1018.31 1018.67 1019.03 1019.36 1019.62 1019.76 1019.84 1019.97 1020.05 1020.07
1013.29 1013.18 1013.60 1014.07 1014.38 1014.43 1014.45 1014.55 1014.46 1014.42 1014.51 1014.69 1014.84 1015.21 1015.16 1015.01 1015.35 1015.73 1015.58 1016.34 1017.23 1018.12 1017.21 1017.30 1016.09 1015.39 1015.80 1016.01 1016.11 1016.19 1016.65 1016.95 1017.31 1017.76 1018.10 1018.42 1018.71 1019.02 1019.27 1019.40 1019.50 1019.61 1019.68
1012.97 1013.66 1013.49 1013.49 1013.76 1014.27 1014.76 1014.62 1014.62 1014.54 1014.52 1014.57 1014.73 1014.68 1014.84 1014.67 1014.57 1014.34 1014.60 1015.30 1015.83 1017.23 1017.22 1017.92 1017.08 1015.55 1015.48 1015.73 1015.89 1016.06 1016.13 1016.58 1016.83 1017.18 1017.51 1017.82 1018.12 1018.41 1018.66 1018.83 1019.00 1019.18 1019.28
1013.17 1013.60 1013.53 1014.26 1013.67 1014.04 1014.39 1014.80 1014.66 1014.50 1014.50 1014.48 1014.41 1014.51 1014.51 1014.41 1014.57 1014.34 1014.36 1014.72 1015.20 1015.80 1016.73 1017.18 1017.28 1017.03 1014.97 1015.13 1015.64 1015.78 1015.62 1015.82 1016.21 1016.61 1016.97 1017.22 1017.48 1017.82 1018.12 1018.31 1018.45 1018.62 1018.79
1012.51 1013.58 1013.98 1014.68 1013.38 1013.69 1014.40 1014.86 1014.72 1014.45 1014.47 1014.42 1014.36 1014.54 1014.51 1014.49 1014.57 1014.51 1014.56 1014.28 1014.81 1015.23 1015.88 1016.26 1017.19 1016.11 1016.18 1015.07 1015.52 1015.48 1015.29 1015.43 1015.68 1015.81 1016.20 1016.52 1016.80 1017.13 1017.46 1017.71 1017.90 1018.07 1018.25
1011.80 1012.41 1012.90 1013.21 1013.44 1013.59 1014.27 1014.71 1014.64 1014.34 1014.30 1014.52 1014.54 1014.49 1014.68 1014.43 1014.57 1014.68 1014.80 1014.89 1014.85 1015.07 1015.59 1015.76 1015.60 1015.68 1015.07 1015.10 1015.26 1015.49 1014.92 1014.59 1014.59 1015.01 1015.34 1015.76 1016.05 1016.41 1016.73 1016.90 1017.07 1017.26 1017.43
1012.09 1012.28 1012.63 1013.04 1013.09 1013.57 1013.89 1014.36 1014.17 1013.97 1013.87 1014.09 1014.33 1014.38 1014.29 1014.24 1014.50 1014.81 1014.82 1014.91 1014.90 1014.70 1014.99 1015.53 1015.24 1014.54 1014.59 1014.70 1014.75 1014.95 1014.80 1014.36 1014.00 1014.05 1014.62 1015.01 1015.34 1015.66 1015.90 1015.97 1016.03 1016.16 1016.33
1011.94 1012.02 1012.13 1012.54 1012.85 1013.23 1013.45 1013.47 1013.56 1013.49 1013.47 1013.56 1013.88 1013.93 1013.86 1014.07 1014.35 1014.49 1014.68 1014.73 1014.70 1014.87 1015.14 1015.41 1015.28 1014.88 1014.52 1014.27 1014.31 1014.54 1014.52 1014.20 1013.89 1013.62 1014.16 1014.24 1014.67 1014.76 1014.84 1015.13 1015.38 1015.45 1015.63
1010.97 1011.45 1011.72 1011.88 1012.17 1012.37 1012.39 1012.59 1012.77 1012.77 1012.89 1013.22 1013.43 1013.71 1013.54 1013.60 1013.62 1013.91 1014.32 1014.46 1014.51 1014.69 1014.87 1014.99 1014.86 1014.41 1014.28 1014.19 1014.18 1014.04 1013.87 1013.80 1013.56 1013.74 1013.89 1013.86 1014.21 1014.68 1014.55 1014.84 1014.91 1014.99 1014.99
1009.99 1010.69 1010.89 1011.04 1010.97 1011.03 1011.02 1011.26 1011.52 1011.96 1012.13 1012.54 1013.05 1013.13 1013.32 1013.49 1013.39 1013.57 1013.66 1013.72 1013.93 1014.29 1014.62 1014.77 1014.76 1014.59 1014.35 1014.31 1013.99 1014.02 1013.83 1014.06 1013.87 1013.26 1013.40 1013.58 1013.53 1013.89 1013.53 1013.24 1013.24 1013.50 1013.89
1009.21 1009.67 1010.15 1010.28 1010.29 1010.36 1010.27 1010.38 1010.72 1011.08 1011.39 1011.70 1012.15 1012.38 1012.67 1012.67 1012.66 1012.79 1012.89 1013.21 1013.41 1013.55 1013.76 1014.11 1014.27 1013.96 1013.93 1014.10 1013.97 1013.97 1013.95 1013.93 1013.89 1013.66 1013.77 1013.79 1013.53 1013.49 1012.97 1013.24 1013.10 1013.31 1013.94
1008.65 1008.76 1009.24 1009.60 1009.84 1009.77 1009.93 1010.17 1010.28 1010.71 1010.85 1010.98 1011.26 1011.60 1011.90 1012.17 1012.20 1012.40 1012.64 1012.89 1013.17 1013.12 1013.21 1013.51 1013.52 1013.38 1013.36 1013.42 1013.78 1013.86 1014.00 1014.03 1013.96 1013.65 1013.62 1013.85 1013.61 1013.58 1013.82 1013.95 1013.79 1013.95 1014.41
1007.97 1007.95 1008.30 1008.82 1009.11 1009.26 1009.38 1009.71 1010.22 1010.37 1010.46 1010.50 1010.64 1010.88 1011.20 1011.47 1011.60 1012.02 1012.07 1012.31 1012.47 1012.37 1012.04 1012.43 1012.51 1012.52 1012.76 1012.91 1013.12 1013.52 1013.72 1014.09 1013.96 1013.76 1013.54 1013.78 1013.74 1013.74 1013.59 1014.28 1014.44 1014.41 1014.83
1007.40 1007.40 1007.56 1007.94 1008.20 1008.37 1008.68 1008.99 1009.46 1009.72 1009.84 1009.90 1009.92 1010.08 1010.26 1010.45 1010.77 1011.09 1011.51 1011.72 1011.90 1011.81 1011.82 1011.95 1012.39 1012.66 1012.66 1012.60 1013.02 1012.95 1013.17 1013.58 1013.86 1013.90 1013.41 1013.64 1013.54 1013.74 1013.63 1013.53 1014.39 1014.75 1015.20
Thickness
5754 5755 5761 5766 5769 5771 5751 5743 5763 5761 5770 5776 5774 5774 5774 5772 5766 5765 5756 5754 5751 5749 5748 5745 5745 5745 5745 5746 5744 5742 5741 5740 5738 5737 5736 5736 5735 5734 5734 5734 5734 5735 5736
5757 5762 5765 5773 5767 5771 5755 5758 5776 5769 5778 5773 5774 5776 5777 5777 5768 5766 5762 5759 5757 5753 5752 5750 5749 5750 5749 5748 5747 5745 5745 5743 5741 5739 5738 5738 5738 5737 5736 5736 5737 5738 5740
5759 5763 5769 5774 5766 5763 5764 5773 5766 5769 5770 5771 5773 5774 5777 5779 5773 5771 5769 5764 5760 5758 5757 5755 5752 5751 5752 5751 5749 5748 5747 5745 5743 5742 5740 5739 5739 5738 5738 5738 5740 5742 5744
5760 5765 5771 5774 5772 5768 5765 5775 5777 5768 5764 5777 5775 5777 5779 5782 5779 5774 5773 5770 5764 5762 5759 5757 5755 5753 5753 5753 5752 5751 5749 5748 5746 5746 5744 5742 5742 5741 5741 5741 5743 5745 5746
5762 5769 5773 5772 5776 5771 5772 5764 5771 5772 5768 5767 5766 5778 5779 5779 5781 5780 5776 5776 5773 5768 5763 5758 5756 5754 5754 5754 5755 5753 5752 5751 5749 5748 5747 5745 5745 5745 5744 5745 5746 5748 5750
5764 5767 5772 5769 5773 5780 5775 5770 5781 5781 5764 5772 5775 5776 5767 5780 5782 5785 5781 5781 5779 5775 5769 5764 5759 5757 5756 5756 5756 5756 5755 5753 5752 5750 5749 5748 5748 5748 5748 5749 5749 5750 5752
5764 5766 5766 5770 5770 5778 5780 5780 5779 5770 5782 5790 5785 5772 5772 5781 5778 5785 5787 5787 5785 5782 5776 5770 5765 5763 5762 5762 5761 5760 5760 5758 5756 5754 5752 5752 5752 5752 5752 5753 5753 5754 5755
5763 5764 5772 5774 5779 5776 5773 5776 5777 5767 5767 5785 5764 5757 5751 5772 5779 5777 5785 5786 5788 5787 5781 5777 5772 5770 5769 5768 5768 5767 5764 5762 5760 5758 5757 5756 5756 5756 5756 5756 5756 5758 5758
5766 5774 5771 5777 5779 5785 5777 5778 5775 5771 5764 5779 5765 5768 5741 5743 5760 5775 5780 5784 5788 5786 5787 5784 5780 5781 5777 5774 5772 5770 5769 5767 5765 5763 5761 5760 5760 5760 5760 5759 5760 5760 5761
5770 5773 5779 5780 5786 5778 5762 5766 5774 5776 5772 5766 5773 5788 5786 5766 5762 5765 5779 5783 5791 5791 5787 5786 5784 5782 5780 5778 5777 5776 5773 5772 5770 5769 5767 5766 5765 5765 5764 5764 5764 5764 5764
5777 5774 5775 5777 5779 5782 5784 5790 5787 5779 5773 5774 5773 5768 5781 5773 5778 5760 5746 5764 5778 5799 5791 5789 5788 5786 5784 5782 5781 5781 5780 5778 5775 5773 5772 5770 5770 5770 5769 5768 5768 5769 5768
5778 5780 5779 5778 5780 5785 5790 5793 5794 5789 5780 5786 5787 5785 5776 5762 5762 5760 5757 5755 5755 5782 5778 5783 5787 5788 5789 5790 5788 5788 5788 5784 5781 5779 5777 5775 5773 5773 5772 5772 5772 5773 5772
5776 5778 5779 5779 5780 5783 5784 5788 5791 5791 5788 5782 5782 5781 5779 5785 5772 5766 5772 5762 5769 5774 5773 5782 5787 5794 5789 5790 5793 5792 5791 5789 5785 5783 5781 5779 5776 5775 5774 5774 5774 5774 5775
5778 5782 5780 5778 5777 5778 5780 5783 5787 5789 5789 5788 5786 5784 5783 5786 5787 5783 5781 5771 5763 5755 5752 5771 5788 5792 5790 5791 5792 5795 5794 5793 5790 5787 5785 5784 5782 5780 5778 5777 5777 5776 5776
5778 5777 5779 5782 5782 5778 5775 5780 5782 5783 5785 5786 5784 5787 5786 5789 5790 5793 5789 5783 5775 5758 5742 5759 5767 5788 5788 5789 5791 5794 5796 5795 5794 5791 5790 5788 5786 5784 5782 5781 5780 5779 5778
5776 5769 5766 5766 5778 5779 5778 5774 5778 5782 5781 5782 5783 5783 5786 5789 5789 5792 5791 5787 5785 5777 5758 5768 5761 5771 5792 5792 5789 5792 5797 5798 5797 5795 5793 5791 5790 5787 5784 5783 5782 5781 5779
5778 5764 5752 5761 5779 5777 5774 5770 5774 5779 5778 5779 5780 5779 5781 5785 5785 5787 5787 5790 5787 5785 5771 5776 5763 5772 5779 5795 5791 5791 5797 5799 5800 5799 5797 5794 5792 5789 5787 5785 5783 5782 5781
5781 5776 5777 5774 5775 5774 5770 5766 5769 5777 5777 5775 5775 5777 5776 5781 5782 5783 5782 5780 5783 5784 5775 5772 5783 5780 5791 5793 5791 5791 5798 5803 5804 5803 5801 5797 5795 5792 5790 5789 5787 5786 5784
5772 5772 5771 5767 5769 5768 5768 5765 5771 5775 5778 5776 5774 5774 5776 5778 5778 5778 5778 5778 5779 5785 5784 5775 5780 5791 5792 5794 5794 5795 5798 5802 5805 5805 5803 5800 5798 5795 5793 5793 5793 5792 5790
5767 5769 5769 5766 5766 5766 5765 5768 5770 5772 5776 5777 5776 5776 5778 5777 5775 5776 5777 5777 5777 5777 5778 5774 5774 5779 5787 5794 5795 5790 5790 5799 5802 5805 5802 5800 5799 5799 5798 5795 5793 5792 5791
5775 5771 5768 5768 5767 5767 5771 5771 5771 5773 5774 5773 5774 5774 5777 5780 5781 5780 5776 5776 5777 5776 5773 5772 5776 5781 5783 5786 5786 5792 5792 5795 5799 5800 5800 5800 5798 5793 5794 5793 5792 5791 5789
5777 5772 5772 5772 5773 5776 5778 5777 5777 5773 5774 5772 5769 5773 5774 5775 5777 5778 5779 5781 5781 5776 5771 5771 5772 5773 5777 5780 5787 5785 5788 5784 5780 5800 5797 5793 5799 5795 5797 5799 5798 5794 5789
5777 5773 5770 5772 5773 5776 5778 5776 5775 5775 5773 5773 5772 5772 5773 5778 5778 5779 5779 5779 5779 5779 5778 5776 5772 5775 5776 5778 5781 5779 5781 5782 5780 5786 5787 5782 5790 5787 5792 5790 5793 5791 5784
5773 5772 5769 5769 5770 5774 5774 5772 5771 5772 5773 5774 5775 5775 5773 5773 5775 5776 5775 5774 5774 5777 5777 5776 5776 5778 5781 5781 5778 5777 5776 5777 5779 5780 5782 5773 5780 5779 5778 5776 5778 5776 5771
5772 5772 5769 5766 5767 5770 5770 5769 5766 5768 5769 5771 5773 5775 5773 5772 5773 5771 5773 5771 5771 5774 5778 5779 5780 5781 5780 5779 5778 5776 5769 5765 5765 5768 5775 5771 5769 5770 5772 5766 5764 5763 5759
5766 5769 5768 5766 5767 5769 5769 5767 5766 5767 5765 5766 5769 5771 5772 5774 5773 5771 5770 5769 5766 5770 5773 5775 5776 5775 5774 5774 5773 5773 5770 5762 5760 5758 5767 5762 5764 5762 5757 5761 5756 5753 5748